Showing default

COSMOS 80, 1570

Orbit data source: Space-Track

COSMOS 80, 1570 is a payload satellite owned by OKB-10 (CIS) in LEO that was launched on Fri, 03 Sep 1965 UTC via a KOSMOS 65S3 launch vehicle from the Tyuratam Missile And Space Complex (TTMTR). Payload-class satellites include a variety of spacecraft equipped with specific instruments for various scientific and technological missions. These include communications satellites like Starlink; space stations such as the ISS; scientific satellites like the Hubble; Earth observation satellites from companies like Planet Labs, Umbra, and HawkEye 360; GPS; miniature CubeSats for education and research; and military/defense satellites.

Loading next visibility...
Identifier
1570, 1965-070A
Orbit
LEO
Country
Flag of CISCIS
Related business
Manufacturer
OKB-10
Mission
Spacecraft
Bus & Motor
STRELA-1 11F610, Unknown motor
Mass
50 kg wet, 50 kg dry
Launch date (UTC)
1965-09-03 (61 years ago)
Launch vehicle
KOSMOS 65S3
Launch site
Tyuratam Missile And Space Complex (TTMTR)
Object type
Payload
Rocket body
Debris
Shape & HBR
POLY, 1.1 m
Radar Cross Section
Medium (>0.1 m² and <1 m²)

Expand to show TLE details & history
Last TLE update: 6 hours ago

TLE from 6 hours ago
0 COSMOS 80
1 01570U 65070A   26267.23664556 -.00000108  00000-0 -72040-4 0  9999
2 01570  56.0546 201.8513 0102812  96.0180  67.5110 12.52801388793769
Epoch: 2026-09-24T05:40Z
TLE epoch observation values (Epoch: 2026-09-24T05:40:46.176Z)
Latitude
12.70245°
Longitude
-75.10089°
Altitude
1,423.026 km
Speed
7.165 km/s
True Right ascension
00h 52m 40s
True Declination
12° 38' 07"
Sunlit
Object was in full shadow at epoch
Visualization orbit readout
Latitude
Unknown
Longitude
Unknown
Altitude
Unknown
Speed
Unknown
Apparent Right ascension
Unknown
Apparent Declination
Unknown
Sunlit
N/A
Visualization observer readout
Local Sidereal Time
04:56:21
Azimuth
Unknown
Elevation
Unknown
Doppler factor
Unknown
Orbital elements
Apogee altitude
1,533.132 km
Perigee altitude
1,372.113 km
Semi-major axis
7,830.76 km
Eccentricity
0.01028
Inclination
56.0546°
RAAN
201.8513°
Arg. of periapsis
96.018°
True anomaly
68.60485°
Mean anomaly
67.511°
Eccentric anomaly
68.0574°
Mean motion
3.13211 °/min
Orbital period
114.94 mins
BSTAR
-0.00007204
Loading maneuver chart data...
Computing Atmospheric mass density...
Loading historical data...
Loading historical data...
Loading historical data...
Loading historical data...
Loading historical data...
Loading historical data...
Loading historical data...
Other satellites on launch #70 in the year 1965 (1965-09-03 UTC)

Documentation

Showing up to 5 results
|